Flag for Italy Weather past 2 weeks in Naples, Italy

Now
61 °F

Passing clouds.


Feels Like: 61 °F
Forecast: 57 / 70 °F
Wind: 3 mph from Northeast

Location: Naples / Capodichino

Current Time: Oct 25, 2014 at 8:25:21 PM

Latest Report: Oct 25, 2014 at 7:20 PM


Visibility: N/A

Pressure: 30.07 "Hg

Humidity: 55%

Dew point: 45 °F

Location of NaplesLocation

Historic Weather in Naples — Graph

°F

Naples temperature yesterday

Maximum temperature yesterday: 63 °F (at 4:50 PM)
Minimum temperature yesterday: 52 °F (at 12:20 AM)
Average temperature yesterday: 56 °F

Past Weeks' High & Low Weather Summary

 TemperatureHumidityPressure
High86 °F (Oct 14, 12:50 PM)94% (Oct 13, 12:20 AM)30.27 "Hg (Oct 13, 12:20 AM)
Low46 °F (Oct 23, 5:20 AM)26% (Oct 23, 1:50 PM)29.56 "Hg (Oct 22, 1:20 PM)
Average69 °F68%29.98 "Hg
* Reported Oct 10 6:20 PM — Oct 25 6:50 PM, Naples, Weather by CustomWeather, © 2014

Note: Actual official high and low records may vary slightly from our data, if they occured in-between our weather recording intervals... More about our weather records

Advertising

Naples weather history for previous 24 hours

 ConditionsComfort  
Time TempWeatherWind HumidityBarometerVisibility
6:50 PM
Oct 25
61 °FPassing clouds.3 mph55%30.04 "HgN/A
6:20 PM61 °FScattered clouds.6 mph55%30.04 "HgN/A
5:50 PM63 °FScattered clouds.9 mph52%30.04 "HgN/A
5:20 PM63 °FScattered clouds.8 mph49%30.04 "HgN/A
4:50 PM64 °FScattered clouds.12 mph46%30.04 "HgN/A
4:20 PM64 °FPassing clouds.9 mph46%30.01 "HgN/A
3:50 PM66 °FPassing clouds.9 mph46%30.01 "HgN/A
3:20 PM66 °FPassing clouds.8 mph46%30.01 "HgN/A
2:50 PM68 °FScattered clouds.8 mph40%30.01 "HgN/A
2:20 PM66 °FScattered clouds.8 mph43%30.01 "HgN/A
1:50 PM68 °FPassing clouds.8 mph40%30.01 "HgN/A
1:20 PM66 °FScattered clouds.7 mph46%30.01 "HgN/A
12:50 PM68 °FScattered clouds.8 mph40%30.01 "HgN/A
12:20 PM64 °FPassing clouds.9 mph46%30.01 "HgN/A
11:50 AM66 °FPassing clouds.7 mph49%30.04 "HgN/A
11:20 AM64 °FPassing clouds.8 mph49%30.01 "HgN/A
10:50 AM64 °FPassing clouds.9 mph52%30.01 "HgN/A
10:20 AM63 °FPassing clouds.7 mph56%30.01 "HgN/A
9:50 AM61 °FPassing clouds.7 mph63%30.01 "HgN/A
9:20 AM59 °FPassing clouds.3 mph68%30.01 "HgN/A
8:50 AM57 °FScattered clouds.2 mph72%30.01 "HgN/A
8:20 AM55 °FPassing clouds.2 mph72%29.98 "HgN/A
7:50 AM55 °FPassing clouds.1 mph72%29.98 "HgN/A
7:20 AM54 °FPassing clouds.5 mph77%29.98 "HgN/A
6:50 AM54 °FPassing clouds.5 mph77%29.95 "HgN/A
6:20 AM50 °FClear.5 mph82%29.95 "Hg10 mi
5:50 AM50 °FClear.3 mph82%29.95 "Hg10 mi
5:20 AM54 °FPassing clouds.3 mph77%29.95 "HgN/A
4:50 AM54 °FClear.6 mph77%29.95 "Hg10 mi
4:20 AM55 °FPassing clouds.6 mph72%29.95 "HgN/A
3:50 AM52 °FPassing clouds.5 mph82%29.92 "HgN/A
3:20 AM52 °FPassing clouds.1 mph72%29.92 "HgN/A
2:50 AM54 °FPassing clouds.2 mph77%29.95 "HgN/A
2:20 AM55 °FPassing clouds.5 mph72%29.95 "HgN/A
1:50 AM54 °FPassing clouds.3 mph72%29.95 "HgN/A
1:20 AM54 °FPassing clouds.1 mph77%29.95 "HgN/A
12:50 AM52 °FPassing clouds.3 mph77%29.95 "HgN/A
12:20 AM54 °FPassing clouds.2 mph77%29.92 "HgN/A
11:50 PM
Oct 24
54 °FPassing clouds.No wind77%29.95 "HgN/A
11:20 PM55 °FPassing clouds.1 mph72%29.95 "HgN/A
10:50 PM57 °FPassing clouds.1 mph67%29.92 "HgN/A
10:20 PM57 °FPassing clouds.3 mph67%29.92 "HgN/A
9:50 PM57 °FPassing clouds.2 mph67%29.92 "HgN/A
9:20 PM57 °FPassing clouds.No wind67%29.92 "HgN/A
8:50 PM57 °FPassing clouds.2 mph67%29.89 "HgN/A
8:20 PM59 °FPassing clouds.2 mph63%29.89 "HgN/A
Weather by CustomWeather, © 2014

See weather overviewHow to use our weather pages